Flag for Denmark Weather past 2 weeks in Roskilde, Denmark

Now
45 °F

Partly cloudy.


Feels Like: 39 °F
Forecast: 40 / 44 °F
Wind: 12 mph from West

Location: Koebenhavn / Roskilde

Current Time: Dec 23, 2014 at 1:28:14 AM

Latest Report: Dec 23, 2014 at 12:50 AM


Visibility: N/A

Pressure: 29.56 "Hg

Humidity: 93%

Dew point: 43 °F

Location of RoskildeLocation

Historic Weather in Roskilde — Graph

°F

Roskilde temperature yesterday

Maximum temperature yesterday: 50 °F (at 8:20 AM)
Minimum temperature yesterday: 45 °F (at 3:50 PM)
Average temperature yesterday: 47 °F

Past Weeks' High & Low Weather Summary

 TemperatureHumidityPressure
High52 °F (Dec 18, 11:20 PM)100% (Dec 8, 12:20 AM)30.21 "Hg (Dec 8, 12:20 AM)
Low32 °F (Dec 8, 7:50 AM)71% (Dec 12, 7:20 PM)28.94 "Hg (Dec 12, 3:50 PM)
Average40 °F91%29.62 "Hg
* Reported Dec 8 12:20 AM — Dec 23 12:20 AM, Roskilde, Weather by CustomWeather, © 2014

Note: Actual official high and low records may vary slightly from our data, if they occured in-between our weather recording intervals... More about our weather records

Advertising

Roskilde weather history for previous 24 hours

 ConditionsComfort  
Time TempWeatherWind HumidityBarometerVisibility
12:20 AM
Dec 23
45 °FPassing clouds.14 mph93%29.56 "HgN/A
11:20 PM
Dec 22
45 °FPassing clouds.14 mph93%29.56 "HgN/A
10:50 PM45 °FPassing clouds.15 mph93%29.56 "HgN/A
10:20 PM45 °FPassing clouds.15 mph93%29.56 "HgN/A
9:50 PM45 °FPassing clouds.16 mph87%29.56 "HgN/A
9:20 PM45 °FPartly cloudy.15 mph93%29.56 "HgN/A
8:50 PM45 °FPassing clouds.16 mph87%29.56 "HgN/A
8:20 PM45 °FPartly cloudy.16 mph93%29.56 "HgN/A
7:50 PM45 °FPassing clouds.17 mph93%29.56 "HgN/A
7:20 PM45 °FPartly cloudy.15 mph93%29.53 "HgN/A
6:50 PM46 °FOvercast.17 mph87%29.56 "HgN/A
6:20 PM46 °FPartly cloudy.20 mph82%29.53 "HgN/A
5:50 PM45 °FPassing clouds.23 mph87%29.53 "HgN/A
5:20 PM45 °FPassing clouds.18 mph87%29.53 "HgN/A
4:50 PM45 °FPassing clouds.18 mph87%29.53 "HgN/A
4:20 PM45 °FQuite cool.20 mph87%29.53 "HgN/A
3:50 PM45 °FPartly cloudy.20 mph87%29.50 "HgN/A
3:20 PM46 °FScattered clouds.21 mph87%29.50 "HgN/A
2:50 PM46 °FOvercast.21 mph87%29.47 "HgN/A
2:20 PM46 °FSprinkles. Overcast.20 mph87%29.47 "HgN/A
1:50 PM48 °FSprinkles. Overcast.22 mph87%29.47 "HgN/A
1:20 PM48 °FSprinkles. Mostly cloudy.20 mph82%29.47 "HgN/A
12:50 PM48 °FSprinkles. Mostly cloudy.18 mph87%29.45 "HgN/A
12:20 PM48 °FSprinkles. Partly sunny.16 mph87%29.45 "HgN/A
11:50 AM48 °FLight rain. Partly sunny.16 mph87%29.45 "HgN/A
11:20 AM48 °FLight rain. Overcast.16 mph94%29.45 "HgN/A
10:50 AM48 °FLight rain. Partly sunny.14 mph100%29.47 "HgN/A
10:20 AM48 °FLight rain. Broken clouds.15 mph100%29.47 "Hg4 mi
9:50 AM48 °FLight rain. Cloudy.13 mph100%29.47 "Hg4 mi
9:20 AM50 °FDrizzle. Mostly cloudy.16 mph94%29.47 "HgN/A
8:50 AM48 °FMostly cloudy.16 mph100%29.47 "HgN/A
8:20 AM50 °FMostly cloudy.18 mph94%29.50 "HgN/A
7:50 AM48 °FMostly cloudy.15 mph100%29.50 "HgN/A
7:20 AM48 °FFog.16 mph100%29.50 "Hg2 mi
6:20 AM48 °FPassing clouds.17 mph100%29.50 "Hg5 mi
5:50 AM48 °FMostly cloudy.20 mph100%29.50 "HgN/A
5:20 AM48 °FDrizzle. Overcast.20 mph94%29.50 "HgN/A
4:50 AM48 °FSprinkles. Mostly cloudy.20 mph94%29.50 "HgN/A
4:20 AM48 °FSprinkles. Mostly cloudy.22 mph94%29.50 "Hg5 mi
3:50 AM48 °FLight rain. Mostly cloudy.22 mph94%29.50 "HgN/A
3:20 AM48 °FLight rain. Mostly cloudy.22 mph94%29.50 "Hg5 mi
2:50 AM46 °FLight rain. Mostly cloudy.22 mph100%29.53 "HgN/A
2:20 AM46 °FLight rain. Mostly cloudy.20 mph93%29.53 "Hg4 mi
1:50 AM46 °FLight rain. Mostly cloudy.20 mph93%29.53 "Hg6 mi
1:20 AM46 °FLight rain. Mostly cloudy.20 mph93%29.53 "HgN/A
Weather by CustomWeather, © 2014

See weather overviewHow to use our weather pages